Regional Weather Roundup
Issued by NWS Albany, NY

Home | Current Version | Previous Version | Text Only | Print | Product List | Glossary On
Versions: 1 2 3 4 5 6 7 8 9 10 11 12 13 14 15 16 17 18 19 20 21 22 23 24 25 26 27 28
000
ASUS41 KALY 051710
RWRALY

NEW YORK STATE HOURLY WEATHER ROUNDUP
NATIONAL WEATHER SERVICE ALBANY NY
100 PM EDT THU MAY 05 2016

NOTE: "FAIR" INDICATES FEW OR NO CLOUDS BELOW 12,000 FEET WITH NO
SIGNIFICANT WEATHER AND/OR NO OBSTRUCTIONS TO VISIBILITY.

NYZ032-033-038>043-046>054-057>066-NYZ062>081-082-084-051800-
EAST


CITY           SKY/WX    TMP DP  RH WIND       PRES   REMARKS
ALBANY         CLOUDY    55  44  66 N10       29.76F
GLENS FALLS    CLOUDY    55  43  63 NE12      29.77F
POUGHKEEPSIE   CLOUDY    57  43  59 N13G23    29.71F
NEWBURGH       CLOUDY    54  46  76 NE12      29.71F
MONTGOMERY     CLOUDY    55  45  68 NE14      29.70F
WHITE PLAINS   CLOUDY    53  43  68 NE14      29.68F
ISLIP          CLOUDY    52  42  69 NE21      29.66F
NEW YORK CITY  CLOUDY    54  45  71 NE15      29.68F
CENTRAL PARK   CLOUDY    54  42  64 E8        29.70F
$$

NYZ005>009-017-018-044>046-055-056-051800-
CENTRAL


CITY           SKY/WX    TMP DP  RH WIND       PRES   REMARKS
FULTON         PTSUNNY   62  46  55 N10       29.77F
SYRACUSE       PTSUNNY   58  43  57 VRB5      29.76F
ROME           CLOUDY    59  43  55 E9        29.76F
ELMIRA         CLOUDY    55  42  61 N12G18    29.74F
BINGHAMTON     CLOUDY    49  41  74 NE12      29.73F
MONTICELLO     PTSUNNY   54  46  76 E10       29.71F
$$

NYZ026>034-041>043-087-051800-
NORTH


CITY           SKY/WX    TMP DP  RH WIND       PRES   REMARKS
WATERTOWN      CLOUDY    58  45  62 NE13G24   29.79F
FORT DRUM      NOT AVBL
MASSENA        MOSUNNY   60  39  45 E18G28    29.85F
SARANAC LAKE   CLOUDY    51  39  63 E13       29.79F
PLATTSBURGH    CLOUDY    58  42  55 NE15      29.82F
$$

NYZ001>004-010>016-019>021-085-051800-
WEST


CITY           SKY/WX    TMP DP  RH WIND       PRES   REMARKS
NIAGARA FALLS  PTSUNNY   57  46  66 NE15      29.81S
BUFFALO        PTSUNNY   60  45  57 NE13      29.79S
DUNKIRK        PTSUNNY   60  48  64 N17G26    29.78F
JAMESTOWN      CLOUDY    57  43  58 NE15      29.75S
WELLSVILLE     CLOUDY    53  41  63 E14G20    29.76S
ROCHESTER      PTSUNNY   56  45  66 NE17      29.81F
PENN YAN       CLOUDY    55  44  66 E6        29.78F
$$

             KEY
       WCI = WIND CHILL INDEX
       VSB = VISIBILITY
       HX  = HEAT INDEX
$$




USA.gov is the U.S. government's official web portal to all federal, state and local government web resources and services.